[[{"header":{"parameterUnit":"m.s-1","parameterCategory":1,"la1":30.2991,"la2":30.254,"lo1":-89.0895,"lo2":-89.0444,"dy":0.0017,"dx":0.0017,"nx":28,"ny":28,"refTime":"2023-09-26T03:00:00:Z","depth":0,"parameterNumber":2,"parameterNumberName":"U-component_of_WINDS"},"data":[0,0,0,0,0,0,0,0,0,0,0,0,0,0,0,0,0,0,0,0,0,0,0,0,0,0,0,0,0,0,0,0,0,0,0,0,0,0,0,0,0,0,0,0,0,0,0,0,0,0,0,0,0,0,0,0,0,0,-0.8027,-0.8026,0,-0.7962,-0.7961,-0.796,-0.7896,-0.7895,-0.7894,-0.7893,-0.7827,-0.7826,-0.7825,0,0,0,0,0,0,0,0,0,0,0,0,0,-0.8098,-0.8097,-0.8027,-0.8026,-0.8025,-0.7962,-0.7961,-0.796,-0.7896,-0.7895,-0.7894,-0.7893,-0.7828,-0.7826,-0.7825,0,0,0,0,0,0,0,0,0,0,0,0,0,-0.8053,-0.8097,-0.8027,-0.7986,-0.7981,-0.7962,-0.7961,-0.796,-0.7896,-0.7895,-0.7893,-0.7892,-0.7828,-0.7827,-0.7825,-0.7842,0,0,-0.7821,-0.782,0,0,0,0,0,0,0,0,-0.8056,-0.8051,-0.7993,-0.7988,-0.7984,-0.7935,-0.7962,-0.792,-0.7896,-0.7928,-0.7893,-0.7892,-0.7864,-0.786,-0.785,-0.7839,-0.7836,-0.7821,-0.782,-0.7819,-0.7819,0,0,0,0,0,0,0,-0.8059,-0.8053,-0.8001,-0.7992,-0.7986,-0.7971,-0.7963,-0.7953,-0.7904,-0.7926,-0.7921,-0.7914,-0.7862,-0.7852,-0.7848,-0.7835,-0.7821,-0.7819,-0.7818,-0.7818,-0.7835,-0.7836,0,0,0,0,0,0,-0.8068,-0.8056,-0.8003,-0.7999,-0.8017,-0.7971,-0.7962,-0.7952,-0.7904,-0.7896,-0.7915,-0.7911,-0.7855,-0.785,-0.7846,-0.7863,-0.7819,-0.7818,-0.7817,-0.7833,-0.7835,-0.7836,0,0,0,0,0,0,-0.807,-0.8064,-0.8006,-0.8026,-0.8018,-0.7971,-0.796,-0.7952,-0.7942,-0.7896,-0.7887,-0.7914,-0.7854,-0.7848,-0.7843,-0.7859,-0.7817,-0.7816,-0.7832,-0.7834,-0.7836,-0.7896,0,0,0,0,0,0,-0.8072,-0.8065,-0.8071,-0.8027,-0.8017,-0.8004,-0.7961,-0.7951,-0.7939,-0.7934,-0.7893,-0.7885,-0.7852,-0.7846,-0.7842,-0.7857,-0.7815,-0.783,-0.7833,-0.7835,-0.7893,-0.79,-0.7906,0,0,0,0,0,-0.8075,-0.809,-0.8071,-0.8065,-0.8023,-0.8005,-0.7999,-0.7961,-0.7941,-0.7946,-0.7917,-0.7886,-0.7858,-0.7846,-0.7841,-0.7856,-0.7829,-0.7832,-0.7835,-0.7889,-0.7899,-0.7906,0,0,0,0,0,0,-0.8137,-0.8084,-0.8062,-0.8063,-0.8039,-0.7994,-0.8,-0.7972,-0.7953,-0.7949,-0.7903,-0.7894,-0.7895,-0.7875,-0.7862,-0.787,-0.7839,-0.7842,-0.7883,-0.7891,-0.7898,-0.7903,-0.7813,0,0,0,0,0,-0.8151,-0.8141,-0.8095,-0.8101,-0.809,-0.8047,-0.8038,-0.8011,-0.7984,-0.7974,-0.7944,-0.792,-0.7906,-0.7897,-0.7882,-0.789,-0.788,-0.7897,-0.7904,-0.791,-0.7912,-0.7916,-0.7923,-0.7846,-0.7846,-0.7846,0,0,-0.818,-0.8149,-0.8145,-0.8112,-0.809,-0.8082,-0.8039,-0.8031,-0.8024,-0.7973,-0.7966,-0.7944,-0.7914,-0.7916,-0.7916,-0.7899,-0.7932,-0.7914,-0.7919,-0.7918,-0.792,-0.7927,-0.7934,-0.7848,-0.7848,-0.7847,0,0,-0.8227,-0.8203,-0.8205,-0.8184,-0.8151,-0.8123,-0.8124,-0.8083,-0.8067,-0.806,-0.8021,-0.8013,-0.7989,-0.7969,-0.7956,-0.7998,-0.7969,-0.7994,-0.803,-0.8034,-0.804,-0.8045,-0.806,-0.8066,-0.7996,-0.7996,-0.7997,0,-0.8266,-0.8251,-0.821,-0.8204,-0.8191,-0.8144,-0.8147,-0.8129,-0.8093,-0.8085,-0.8068,-0.8037,-0.8014,-0.8011,-0.8021,-0.8012,-0.8012,-0.7998,-0.8042,-0.8047,-0.8051,-0.8065,-0.8071,-0.8,-0.7999,-0.7999,-0.7999,0,-0.8301,-0.8291,-0.8297,-0.8264,-0.8251,-0.825,-0.821,-0.8202,-0.8177,-0.8151,-0.8145,-0.8115,-0.8093,-0.809,-0.8065,-0.8084,-0.8075,-0.8051,-0.8019,-0.8063,-0.8075,-0.808,-0.8004,-0.8003,-0.8002,-0.8001,0,0,-0.8385,-0.8329,-0.8332,-0.8317,-0.8278,-0.827,-0.8267,-0.8245,-0.824,-0.8217,-0.8214,-0.8196,-0.8173,-0.8158,-0.8131,-0.8134,-0.817,-0.8109,-0.8108,-0.8122,-0.819,-0.8209,-0.8215,-0.815,-0.8151,-0.8152,-0.8192,0,-0.8426,-0.8417,-0.838,-0.8383,-0.8373,-0.8329,-0.8327,-0.8303,-0.8279,-0.8268,-0.8242,-0.823,-0.82,-0.8191,-0.8193,-0.8165,-0.8183,-0.8162,-0.8148,-0.8148,-0.8156,-0.8222,-0.8241,-0.8281,-0.8197,-0.8198,-0.8198,0,-0.8472,-0.8452,-0.8453,-0.8416,-0.841,-0.8409,-0.8386,-0.8376,-0.8349,-0.8331,-0.8316,-0.8285,-0.828,-0.8251,-0.8245,-0.8231,-0.8224,-0.8209,-0.821,-0.8207,-0.8175,-0.8221,-0.8292,-0.8298,-0.8205,-0.8205,-0.8204,0,-0.8533,-0.8507,-0.8504,-0.8493,-0.8448,-0.8448,-0.843,-0.8401,-0.8391,-0.8372,-0.8365,-0.8345,-0.8335,-0.8321,-0.8286,-0.8268,-0.8284,-0.8252,-0.8269,-0.827,-0.8274,-0.8274,-0.8346,-0.827,-0.827,-0.827,-0.8269,0,-0.8582,-0.8585,-0.8531,-0.853,-0.8532,-0.8491,-0.8494,-0.8472,-0.8447,-0.8441,-0.8402,-0.8397,-0.8351,-0.8342,-0.8315,-0.8314,-0.8309,-0.8295,-0.8288,-0.8299,-0.8301,-0.8293,-0.8289,-0.8271,-0.8271,-0.827,-0.827,0,-0.8651,-0.8615,-0.861,-0.8568,-0.8558,-0.8562,-0.8526,-0.8524,-0.8498,-0.8491,-0.8487,-0.8446,-0.8433,-0.8397,-0.8374,-0.8356,-0.8363,-0.8349,-0.8372,-0.8368,-0.8387,-0.8386,-0.8456,-0.8463,-0.8383,-0.8384,-0.8385,0,-0.8685,-0.8686,-0.8645,-0.8638,-0.8621,-0.861,-0.8599,-0.8559,-0.8549,-0.8519,-0.8521,-0.8504,-0.8489,-0.847,-0.8439,-0.8422,-0.8408,-0.8434,-0.8405,-0.8416,-0.8408,-0.8409,-0.8409,-0.844,-0.8441,-0.8442,-0.8442,0,-0.8749,-0.8731,-0.8716,-0.8696,-0.8684,-0.8667,-0.8647,-0.8644,-0.8598,-0.859,-0.8576,-0.8564,-0.8541,-0.8526,-0.8504,-0.8486,-0.8457,-0.8452,-0.8455,-0.8466,-0.8479,-0.8473,-0.8389,-0.845,-0.8449,-0.8449,-0.8448,-0.8448,-0.8801,-0.88,-0.8771,-0.8757,-0.8737,-0.872,-0.8716,-0.8689,-0.8676,-0.8655,-0.8632,-0.8621,-0.8594,-0.8562,-0.8546,-0.8537,-0.8522,-0.8526,-0.8528,-0.8529,-0.8534,-0.8481,-0.8533,-0.8533,-0.8532,-0.8532,-0.8532,0,-0.8863,-0.8842,-0.8829,-0.8803,-0.8792,-0.8765,-0.8742,-0.8735,-0.8725,-0.8703,-0.8689,-0.8673,-0.8658,-0.8626,-0.8609,-0.8608,-0.8594,-0.8605,-0.8604,-0.8601,-0.8549,-0.8548,-0.8616,-0.8616,-0.8616,-0.8616,-0.8616,-0.8616,-0.8894,-0.8891,-0.887,-0.8858,-0.8838,-0.8826,-0.8815,-0.8799,-0.8781,-0.8765,-0.8753,-0.8732,-0.8706,-0.8686,-0.8672,-0.8663,-0.8658,-0.8673,-0.866,-0.8612,-0.8604,-0.8597,-0.8596,-0.8673,-0.8673,-0.8713,-0.8713,-0.8713]},{"header":{"parameterUnit":"m.s-1","parameterCategory":1,"la1":30.2991,"la2":30.254,"lo1":-89.0895,"lo2":-89.0444,"dy":0.0017,"dx":0.0017,"nx":28,"ny":28,"refTime":"2023-09-26T03:00:00:Z","depth":0,"parameterNumber":3,"parameterNumberName":"V-component_of_WINDS"},"data":[0,0,0,0,0,0,0,0,0,0,0,0,0,0,0,0,0,0,0,0,0,0,0,0,0,0,0,0,0,0,0,0,0,0,0,0,0,0,0,0,0,0,0,0,0,0,0,0,0,0,0,0,0,0,0,0,0,0,0.768,0.7679,0,0.7616,0.7616,0.7615,0.7557,0.7556,0.7555,0.7555,0.7491,0.749,0.7489,0,0,0,0,0,0,0,0,0,0,0,0,0,0.7753,0.7752,0.768,0.7679,0.7679,0.7616,0.7616,0.7615,0.7557,0.7556,0.7555,0.7554,0.7492,0.7491,0.7489,0,0,0,0,0,0,0,0,0,0,0,0,0,0.7709,0.7752,0.768,0.7642,0.7638,0.7617,0.7616,0.7614,0.7557,0.7556,0.7555,0.7554,0.7492,0.7491,0.7489,0.7501,0,0,0.7484,0.7484,0,0,0,0,0,0,0,0,0.7711,0.7706,0.7648,0.7645,0.764,0.7593,0.7618,0.7577,0.7557,0.7588,0.7555,0.7553,0.7526,0.7522,0.7512,0.7498,0.7495,0.7484,0.7483,0.7483,0.7482,0,0,0,0,0,0,0,0.7715,0.7709,0.7655,0.7648,0.7643,0.7629,0.7621,0.761,0.7564,0.7585,0.7581,0.7574,0.7524,0.7514,0.751,0.7494,0.7484,0.7483,0.7482,0.7481,0.7485,0.7486,0,0,0,0,0,0,0.7723,0.7712,0.7657,0.7653,0.7674,0.7628,0.762,0.7609,0.7564,0.7556,0.7575,0.7571,0.7517,0.7512,0.7508,0.7517,0.7483,0.7481,0.748,0.7484,0.7485,0.7486,0,0,0,0,0,0,0.7725,0.7719,0.7659,0.7681,0.7672,0.7628,0.7617,0.7609,0.7599,0.7556,0.7548,0.7573,0.7516,0.751,0.7502,0.7514,0.7481,0.7479,0.7483,0.7484,0.7486,0.7536,0,0,0,0,0,0,0.7727,0.772,0.7723,0.7682,0.7671,0.7655,0.7618,0.7608,0.7596,0.7591,0.7552,0.7545,0.7515,0.7505,0.7501,0.7511,0.7478,0.7481,0.7483,0.7485,0.7533,0.7539,0.7544,0,0,0,0,0,0.773,0.7741,0.7724,0.7718,0.7675,0.7655,0.765,0.7614,0.7597,0.76,0.7573,0.7546,0.7514,0.7505,0.75,0.7509,0.748,0.7483,0.7485,0.753,0.7537,0.7544,0,0,0,0,0,0,0.7786,0.7735,0.7715,0.7713,0.7689,0.7646,0.7648,0.7624,0.7604,0.76,0.7558,0.755,0.7547,0.7528,0.7519,0.7518,0.7493,0.7495,0.753,0.7536,0.7542,0.7545,0.7477,0,0,0,0,0,0.7798,0.7786,0.7742,0.7744,0.7733,0.7693,0.7684,0.7658,0.7632,0.7622,0.7594,0.757,0.7554,0.7545,0.7528,0.7531,0.752,0.7535,0.754,0.7545,0.7546,0.7544,0.7549,0.7493,0.7493,0.7493,0,0,0.7823,0.7793,0.7788,0.7755,0.7733,0.7721,0.7685,0.7675,0.7665,0.762,0.761,0.7589,0.756,0.7557,0.7554,0.7541,0.756,0.7548,0.7552,0.755,0.7547,0.7552,0.7557,0.7495,0.7495,0.7494,0,0,0.7861,0.7839,0.7836,0.7815,0.7783,0.7756,0.7756,0.7717,0.77,0.769,0.7655,0.7645,0.7619,0.7598,0.7585,0.7616,0.759,0.7612,0.764,0.7638,0.7643,0.7646,0.7655,0.7659,0.7614,0.7614,0.7614,0,0.7895,0.7876,0.7839,0.7829,0.7815,0.7774,0.7771,0.7753,0.7718,0.7709,0.7695,0.766,0.7638,0.7628,0.7636,0.7627,0.7625,0.7615,0.7645,0.7648,0.7651,0.7659,0.7663,0.7616,0.7616,0.7616,0.7616,0,0.7919,0.7906,0.7908,0.7873,0.786,0.7855,0.7817,0.7808,0.7784,0.7759,0.7749,0.7721,0.7696,0.7693,0.7671,0.768,0.7673,0.7653,0.7627,0.766,0.7666,0.7669,0.762,0.7619,0.7619,0.7618,0,0,0.7988,0.7933,0.7934,0.7917,0.7878,0.7868,0.7861,0.7836,0.7829,0.7806,0.7798,0.7778,0.7758,0.7743,0.7718,0.7718,0.7741,0.7697,0.7696,0.7704,0.7748,0.7761,0.7765,0.7725,0.7725,0.7726,0.7749,0,0.8017,0.8,0.7967,0.7961,0.7947,0.7908,0.7902,0.7878,0.7855,0.7841,0.7816,0.7801,0.7778,0.7768,0.7766,0.7739,0.7749,0.7737,0.7716,0.7715,0.7721,0.7769,0.7783,0.7807,0.7752,0.7752,0.7753,0,0.8049,0.8027,0.8019,0.798,0.7973,0.7968,0.7942,0.793,0.7902,0.7885,0.7868,0.7841,0.7831,0.781,0.7795,0.7788,0.7778,0.7764,0.7764,0.7758,0.7734,0.7762,0.7813,0.7816,0.7757,0.7756,0.7756,0,0.8096,0.8066,0.8056,0.8043,0.7999,0.7996,0.7977,0.7948,0.7935,0.7914,0.7905,0.7884,0.7871,0.7855,0.7823,0.781,0.7811,0.7788,0.7796,0.7797,0.7796,0.7796,0.7843,0.7794,0.7794,0.7794,0.7794,0,0.813,0.8126,0.8076,0.807,0.8065,0.8028,0.8023,0.8001,0.7976,0.7965,0.7932,0.7922,0.7881,0.7868,0.7843,0.7833,0.7829,0.7815,0.7807,0.7816,0.7817,0.7807,0.7803,0.7795,0.7795,0.7795,0.7794,0,0.8181,0.8148,0.8135,0.8094,0.8083,0.8081,0.8046,0.8039,0.8014,0.8001,0.7996,0.7957,0.7939,0.7906,0.7879,0.7862,0.7858,0.7847,0.7866,0.7861,0.7871,0.787,0.7911,0.7914,0.7866,0.7866,0.7867,0,0.8204,0.8199,0.8158,0.8148,0.813,0.8115,0.8101,0.8065,0.8053,0.802,0.8017,0.7996,0.7977,0.795,0.792,0.7899,0.7886,0.7903,0.7883,0.7891,0.7883,0.7883,0.7882,0.7906,0.7907,0.7907,0.7908,0,0.8246,0.823,0.8211,0.8187,0.8172,0.8152,0.8129,0.8123,0.8082,0.807,0.805,0.8036,0.8008,0.7987,0.7962,0.7943,0.7918,0.7915,0.7915,0.7922,0.7932,0.7925,0.7876,0.7913,0.7913,0.7912,0.7912,0.7912,0.8281,0.8275,0.8244,0.8225,0.8205,0.8185,0.8175,0.815,0.8133,0.8106,0.8086,0.8068,0.804,0.8004,0.7987,0.7972,0.7961,0.7962,0.7962,0.7962,0.7964,0.7937,0.7968,0.7968,0.7967,0.7967,0.7967,0,0.832,0.8298,0.8281,0.825,0.8235,0.8214,0.8188,0.8177,0.8161,0.8137,0.8119,0.8096,0.8076,0.8045,0.8022,0.8017,0.8005,0.8012,0.801,0.8006,0.7977,0.7978,0.8022,0.8022,0.8022,0.8022,0.8022,0.8022,0.8337,0.8325,0.8306,0.8283,0.8262,0.8243,0.823,0.8211,0.8192,0.8168,0.8151,0.813,0.8103,0.8079,0.806,0.8051,0.8043,0.8053,0.8041,0.8014,0.8009,0.8004,0.8004,0.8053,0.8053,0.8071,0.8071,0.8072]}]]